Regional Weather Roundup
Issued by NWS

Home | Current Version | Previous Version | Graphics & Text | Print | Product List | Glossary On
Versions: 1 2 3 4 5 6 7 8 9 10 11 12 13 14 15 16 17 18 19 20 21 22 23 24 25 26 27 28 29 30 31 32 33 34 35 36 37 38 39 40 41 42 43 44 45 46 47 48 49 50
000
ASUS43 KFSD 181402
RWRSD

WEATHER ROUNDUP FOR SOUTH DAKOTA
NATIONAL WEATHER SERVICE SIOUX FALLS SD
900 AM CDT FRI APR 18 2014

NOTE: "FAIR" INDICATES FEW OR NO CLOUDS BELOW 12,000 FEET WITH NO
SIGNIFICANT WEATHER AND/OR OBSTRUCTIONS TO VISIBILITY.


SDZ001>005-009-010-012>017-181500-
NORTHWEST AND NORTH CENTRAL SOUTH DAKOTA

CITY           SKY/WX    TMP DP  RH WIND       PRES   REMARKS
FAITH            N/A     38  29  70 SE18      29.86F
MOBRIDGE       SUNNY     39  28  64 SE15G24   29.95F
$$

SDZ012>016-024>037-041>051-057-063-072>074-181500-
SOUTHWEST AND SOUTH CENTRAL SOUTH DAKOTA

CITY           SKY/WX    TMP DP  RH WIND       PRES   REMARKS
RAPID CTY ARPT PTSUNNY   39  36  89 SE5       29.82R
PIERRE         MOSUNNY   41  29  62 SE17      29.93F
CUSTER         PTSUNNY   47  27  45 W9        29.87S
ELLSWORTH AFB  MOSUNNY   42  37  83 S6        29.80F
PHILIP         MOSUNNY   44  36  73 E8        29.87S
PINE RIDGE     MOSUNNY   48  37  65 S14       29.87S
WINNER         FAIR      50  36  58 S31G40    29.91F
$$

SDZ004>011-016>023-039-040-181500-
NORTHEAST SOUTH DAKOTA

CITY           SKY/WX    TMP DP  RH WIND       PRES   REMARKS
ABERDEEN       CLOUDY    40  28  62 SE17G24   30.11F
WATERTOWN      CLOUDY    36  28  73 SE15G24   30.18S
SISSETON         N/A     34  26  72 S16       30.24S WCI  24
$$

SDZ017-020-022-023-036>040-048>070-181500-
SOUTHEAST SOUTH DAKOTA

CITY           SKY/WX    TMP DP  RH WIND       PRES   REMARKS
SIOUX FALLS    CLOUDY    38  31  76 SE13      30.21S
HURON          PTSUNNY   41  29  62 SE16G26   30.09F
CHAMBERLAIN      N/A     44  31  60 SE18      30.00S
MITCHELL       CLOUDY    41  30  65 SE20G28   30.12F
YANKTON        PTSUNNY   39  30  70 E9        30.19S
$$

ABBREVIATIONS USED IN REMARKS
   TC - TEMPERATURE IN CELSIUS
  WCI - WIND CHILL INDEX
   HX - HEAT INDEX
  VSB - VISIBILITY




USA.gov is the U.S. government's official web portal to all federal, state and local government web resources and services.